Location: Coupvray
(48.8929°N, 2.7967°E)
Time: 08:02:21
(UTC+00:00)

Cosmos 1697 Rocket - Pass Details

Date: 14 July 2020
Orbit: 834 x 842 km, 71.0° (Epoch: 14 August)

Event Time Altitude Azimuth Distance (km) Brightness Sun altitude
Rises 00:23:40 0° 335° (NNW) 3,400 6.8 -19.2°
Reaches altitude 10° 00:26:27 10° 346° (NNW) 2,461 6.1 -19.1°
Maximum altitude 00:31:22 30° 47° (NE) 1,473 4.5 -19.0°
Drops below altitude 10° 00:36:14 10° 107° (ESE) 2,446 5.0 -18.9°
Sets 00:38:59 0° 119° (ESE) 3,375 5.7 -18.8°
